Location: Huntsville
(41.2590°N, 111.7678°W)
Time: 05:35:24
(UTC+00:00)

SR - Pass Details

Date: 18 June 2021
Orbit: 577 x 878 km, 66.7° (Epoch: 26 July)

Event Time Altitude Azimuth Distance (km) Brightness Sun altitude
Rises 08:32:49 0° 335° (NNW) 3,306 ? -23.6°
Reaches altitude 10° 08:35:29 10° 342° (NNW) 2,325 ? -23.5°
Maximum altitude 08:40:29 41° 52° (NE) 1,051 ? -23.2°
Enters shadow 08:44:38 12° 121° (ESE) 1,975 ? -22.9°
